Time,TemperatureF,DewpointF,PressureIn,WindDirection,WindDirectionDegrees,WindSpeedMPH,WindSpeedGustMPH,Humidity,HourlyPrecipIn,Conditions,Clouds,dailyrainin,SoftwareType,DateUTC
2013-04-18 00:01:00,13.6,9.9,29.97,SE,144,0.0,9.0,85,0.00,,---,0.00,VWS V14.01,2013-04-18 06:01:00,
2013-04-18 00:21:00,13.5,9.8,29.97,SE,138,0.0,0.0,85,0.00,,---,0.00,VWS V14.01,2013-04-18 06:21:00,
2013-04-18 00:31:00,13.3,9.6,29.97,SE,140,0.0,0.0,85,0.00,,---,0.00,VWS V14.01,2013-04-18 06:31:00,
2013-04-18 00:41:00,13.2,9.6,29.97,SE,140,0.0,0.0,85,0.00,,---,0.00,VWS V14.01,2013-04-18 06:41:00,
2013-04-18 00:51:00,13.1,9.4,29.97,SE,140,0.0,0.0,85,0.00,,---,0.00,VWS V14.01,2013-04-18 06:51:00,
2013-04-18 01:01:00,13.0,9.4,29.97,SE,140,0.0,0.0,85,0.00,,---,0.00,VWS V14.01,2013-04-18 07:01:00,
2013-04-18 01:11:00,12.7,9.3,29.93,SE,140,0.0,0.0,86,0.00,,---,0.00,VWS V14.01,2013-04-18 07:11:00,
2013-04-18 01:21:00,12.3,8.9,29.95,SE,140,0.0,0.0,86,0.00,,---,0.00,VWS V14.01,2013-04-18 07:21:00,
2013-04-18 01:31:00,12.0,8.6,29.95,SE,140,0.0,0.0,86,0.00,,---,0.00,VWS V14.01,2013-04-18 07:31:00,
2013-04-18 01:41:00,12.1,8.7,29.95,SE,140,0.0,0.0,86,0.00,,---,0.00,VWS V14.01,2013-04-18 07:41:00,
2013-04-18 01:51:00,12.2,8.8,29.95,SE,140,0.0,0.0,86,0.00,,---,0.00,VWS V14.01,2013-04-18 07:51:00,
2013-04-18 02:01:00,12.3,8.9,29.97,SE,140,0.0,0.0,86,0.00,,---,0.00,VWS V14.01,2013-04-18 08:01:00,
2013-04-18 02:21:00,12.2,8.8,29.97,SE,140,0.0,0.0,86,0.00,,---,0.00,VWS V14.01,2013-04-18 08:21:00,
2013-04-18 02:31:00,12.0,8.6,29.97,SE,140,0.0,0.0,86,0.00,,---,0.00,VWS V14.01,2013-04-18 08:31:00,
2013-04-18 02:41:00,11.8,8.4,29.97,SE,140,0.0,0.0,86,0.00,,---,0.00,VWS V14.01,2013-04-18 08:41:00,
2013-04-18 02:51:00,11.4,8.0,29.96,SE,140,0.0,0.0,86,0.00,,---,0.00,VWS V14.01,2013-04-18 08:51:00,
2013-04-18 03:01:00,10.8,7.4,29.96,SE,140,0.0,0.0,86,0.00,,---,0.00,VWS V14.01,2013-04-18 09:01:00,
2013-04-18 03:11:00,9.8,6.2,30.00,SE,140,0.0,0.0,85,0.00,,---,0.00,VWS V14.01,2013-04-18 09:11:00,
2013-04-18 03:21:00,8.9,5.3,30.01,SE,140,0.0,0.0,85,0.00,,---,0.00,VWS V14.01,2013-04-18 09:21:00,
2013-04-18 03:31:00,9.0,5.7,30.01,SE,140,0.0,0.0,86,0.00,,---,0.00,VWS V14.01,2013-04-18 09:31:00,
2013-04-18 03:41:00,8.0,4.4,30.01,SE,140,0.0,0.0,85,0.00,,---,0.00,VWS V14.01,2013-04-18 09:41:00,
2013-04-18 03:51:00,7.0,3.5,30.04,SE,140,0.0,0.0,85,0.00,,---,0.00,VWS V14.01,2013-04-18 09:51:00,
2013-04-18 04:01:00,6.9,3.1,30.03,SE,140,0.0,0.0,84,0.00,,---,0.00,VWS V14.01,2013-04-18 10:01:00,
2013-04-18 04:11:00,6.3,2.2,30.06,SE,140,0.0,0.0,83,0.00,,---,0.00,VWS V14.01,2013-04-18 10:11:00,
2013-04-18 04:21:00,6.7,3.2,30.05,SE,140,0.0,0.0,85,0.00,,---,0.00,VWS V14.01,2013-04-18 10:21:00,
2013-04-18 04:31:00,8.4,5.1,30.05,SE,140,0.0,0.0,86,0.00,,---,0.00,VWS V14.01,2013-04-18 10:31:00,
2013-04-18 04:41:00,8.5,4.9,30.03,SE,140,0.0,0.0,85,0.00,,---,0.00,VWS V14.01,2013-04-18 10:41:00,
2013-04-18 04:51:00,8.4,4.8,30.05,SE,140,0.0,0.0,85,0.00,,---,0.00,VWS V14.01,2013-04-18 10:51:00,
2013-04-18 05:01:00,8.7,5.1,30.03,SE,140,0.0,0.0,85,0.00,,---,0.00,VWS V14.01,2013-04-18 11:01:00,
2013-04-18 05:21:00,7.9,4.1,30.07,SE,140,0.0,0.0,84,0.00,,---,0.00,VWS V14.01,2013-04-18 11:21:00,
2013-04-18 05:31:00,8.1,4.3,30.08,SE,140,0.0,0.0,84,0.00,,---,0.00,VWS V14.01,2013-04-18 11:31:00,
2013-04-18 05:41:00,8.3,4.0,30.08,SE,140,0.0,0.0,82,0.00,,---,0.00,VWS V14.01,2013-04-18 11:41:00,
2013-04-18 05:51:00,10.2,5.0,30.06,ESE,105,7.0,9.0,79,0.00,,---,0.00,VWS V14.01,2013-04-18 11:51:00,
2013-04-18 06:01:00,11.3,5.2,30.06,North,5,5.0,11.0,76,0.00,,---,0.00,VWS V14.01,2013-04-18 12:01:00,
2013-04-18 06:11:00,11.6,4.6,30.08,North,360,7.0,11.0,73,0.00,,---,0.00,VWS V14.01,2013-04-18 12:11:00,
2013-04-18 06:21:00,11.0,3.8,30.10,North,5,4.0,9.0,72,0.00,,---,0.00,VWS V14.01,2013-04-18 12:21:00,
2013-04-18 06:31:00,10.3,2.8,30.11,North,360,6.0,6.0,71,0.00,,---,0.00,VWS V14.01,2013-04-18 12:31:00,
2013-04-18 06:41:00,11.2,3.3,30.11,NW,324,7.0,13.0,70,0.00,,---,0.00,VWS V14.01,2013-04-18 12:41:00,
2013-04-18 06:51:00,11.4,3.2,30.11,NW,317,10.0,14.0,69,0.00,,---,0.00,VWS V14.01,2013-04-18 12:51:00,
2013-04-18 07:01:00,11.6,3.1,30.10,NW,317,10.0,14.0,68,0.00,,---,0.00,VWS V14.01,2013-04-18 13:01:00,
2013-04-18 07:11:00,11.9,3.1,30.14,NW,317,8.0,13.0,67,0.00,,---,0.00,VWS V14.01,2013-04-18 13:11:00,
2013-04-18 07:21:00,12.5,3.0,30.14,NW,320,10.0,14.0,65,0.00,,---,0.00,VWS V14.01,2013-04-18 13:21:00,
2013-04-18 07:31:00,13.0,3.1,30.14,NW,318,10.0,14.0,64,0.00,,---,0.00,VWS V14.01,2013-04-18 13:31:00,
2013-04-18 07:41:00,13.8,3.2,30.12,NW,317,11.0,16.0,62,0.00,,---,0.00,VWS V14.01,2013-04-18 13:41:00,
2013-04-18 07:51:00,14.7,3.7,30.13,NW,317,9.0,12.0,61,0.00,,---,0.00,VWS V14.01,2013-04-18 13:51:00,
2013-04-18 08:01:00,15.6,4.6,30.11,NNW,337,10.0,14.0,61,0.00,,---,0.00,VWS V14.01,2013-04-18 14:01:00,
2013-04-18 08:11:00,15.8,4.0,30.13,NNW,343,13.0,18.0,59,0.00,,---,0.00,VWS V14.01,2013-04-18 14:11:00,
2013-04-18 08:21:00,15.4,2.9,30.15,NNW,342,13.0,17.0,57,0.00,,---,0.00,VWS V14.01,2013-04-18 14:21:00,
2013-04-18 08:31:00,15.8,3.3,30.14,NNW,343,13.0,21.0,57,0.00,,---,0.00,VWS V14.01,2013-04-18 14:31:00,
2013-04-18 08:41:00,16.3,2.6,30.14,NNW,345,16.0,21.0,54,0.00,,---,0.00,VWS V14.01,2013-04-18 14:41:00,
2013-04-18 08:51:00,17.0,3.2,30.14,NNW,347,14.0,19.0,54,0.00,,---,0.00,VWS V14.01,2013-04-18 14:51:00,
2013-04-18 09:01:00,17.5,2.9,30.12,North,355,14.0,19.0,52,0.00,,---,0.00,VWS V14.01,2013-04-18 15:01:00,
2013-04-18 09:11:00,18.4,3.7,30.16,North,355,18.0,20.0,52,0.00,,---,0.00,VWS V14.01,2013-04-18 15:11:00,
2013-04-18 09:21:00,18.9,3.3,30.15,North,355,14.0,21.0,50,0.00,,---,0.00,VWS V14.01,2013-04-18 15:21:00,
2013-04-18 09:31:00,19.4,3.8,30.14,NNW,348,18.0,19.0,50,0.00,,---,0.00,VWS V14.01,2013-04-18 15:31:00,
2013-04-18 09:41:00,19.7,4.9,30.14,North,355,16.0,19.0,52,0.00,,---,0.00,VWS V14.01,2013-04-18 15:41:00,
2013-04-18 10:01:00,19.1,4.4,30.14,NNW,344,18.0,26.0,52,0.00,,---,0.00,VWS V14.01,2013-04-18 16:01:00,
2013-04-18 10:11:00,19.7,4.1,30.14,North,349,15.0,23.0,50,0.00,,---,0.00,VWS V14.01,2013-04-18 16:11:00,
2013-04-18 10:21:00,19.5,3.5,30.14,North,355,23.0,28.0,49,0.00,,---,0.00,VWS V14.01,2013-04-18 16:21:00,
2013-04-18 10:31:00,19.4,2.9,30.17,North,10,21.0,25.0,48,0.00,,---,0.00,VWS V14.01,2013-04-18 16:31:00,
2013-04-18 10:41:00,20.1,5.3,30.15,North,9,19.0,25.0,52,0.00,,---,0.00,VWS V14.01,2013-04-18 16:41:00,
2013-04-18 10:51:00,20.3,4.2,30.15,North,350,21.0,28.0,49,0.00,,---,0.00,VWS V14.01,2013-04-18 16:51:00,
2013-04-18 11:11:00,21.0,3.9,30.15,North,360,21.0,28.0,47,0.00,,---,0.00,VWS V14.01,2013-04-18 17:11:00,
2013-04-18 11:21:00,21.3,4.7,30.15,North,355,26.0,32.0,48,0.00,,---,0.00,VWS V14.01,2013-04-18 17:21:00,
2013-04-18 11:31:00,21.7,5.9,30.13,North,355,21.0,31.0,50,0.00,,---,0.00,VWS V14.01,2013-04-18 17:31:00,
2013-04-18 11:41:00,22.3,7.4,30.13,NNW,345,25.0,32.0,52,0.00,,---,0.00,VWS V14.01,2013-04-18 17:41:00,
2013-04-18 11:51:00,22.1,7.6,30.13,North,355,23.0,31.0,53,0.00,,---,0.00,VWS V14.01,2013-04-18 17:51:00,
2013-04-18 12:01:00,22.9,11.5,30.13,NNW,346,26.0,29.0,61,0.00,,---,0.00,VWS V14.01,2013-04-18 18:01:00,
2013-04-18 12:11:00,22.7,8.6,30.13,North,355,22.0,29.0,54,0.00,,---,0.00,VWS V14.01,2013-04-18 18:11:00,
2013-04-18 12:21:00,22.8,6.5,30.13,NNW,342,21.0,33.0,49,0.00,,---,0.00,VWS V14.01,2013-04-18 18:21:00,
2013-04-18 12:31:00,23.2,8.2,30.13,NNW,348,19.0,33.0,52,0.00,,---,0.00,VWS V14.01,2013-04-18 18:31:00,
2013-04-18 12:41:00,23.5,9.3,30.13,North,355,28.0,36.0,54,0.00,,---,0.00,VWS V14.01,2013-04-18 18:41:00,
2013-04-18 12:51:00,22.9,7.1,30.13,North,355,23.0,30.0,50,0.00,,---,0.00,VWS V14.01,2013-04-18 18:51:00,
2013-04-18 13:01:00,24.2,8.3,30.13,NNW,344,21.0,33.0,50,0.00,,---,0.00,VWS V14.01,2013-04-18 19:01:00,
2013-04-18 13:11:00,24.4,6.6,30.12,North,355,21.0,31.0,46,0.00,,---,0.00,VWS V14.01,2013-04-18 19:11:00,
2013-04-18 13:21:00,25.3,9.3,30.12,NNW,348,21.0,31.0,50,0.00,,---,0.00,VWS V14.01,2013-04-18 19:21:00,
2013-04-18 13:41:00,25.4,7.0,30.10,North,355,30.0,32.0,45,0.00,,---,0.00,VWS V14.01,2013-04-18 19:41:00,
2013-04-18 13:51:00,25.9,7.0,30.10,North,360,20.0,30.0,44,0.00,,---,0.00,VWS V14.01,2013-04-18 19:51:00,
2013-04-18 14:01:00,26.6,7.1,30.11,North,360,22.0,29.0,43,0.00,,---,0.00,VWS V14.01,2013-04-18 20:01:00,
2013-04-18 14:11:00,27.0,9.9,30.11,NNW,344,20.0,32.0,48,0.00,,---,0.00,VWS V14.01,2013-04-18 20:11:00,
2013-04-18 14:21:00,27.1,6.5,30.11,North,360,26.0,32.0,41,0.00,,---,0.00,VWS V14.01,2013-04-18 20:21:00,
2013-04-18 14:31:00,27.7,7.1,30.11,NNW,348,17.0,32.0,41,0.00,,---,0.00,VWS V14.01,2013-04-18 20:31:00,
2013-04-18 14:51:00,28.0,6.8,30.12,NNW,348,30.0,31.0,40,0.00,,---,0.00,VWS V14.01,2013-04-18 20:51:00,
2013-04-18 15:01:00,27.9,5.6,30.12,NNW,336,17.0,34.0,38,0.00,,---,0.00,VWS V14.01,2013-04-18 21:01:00,
2013-04-18 15:11:00,27.6,5.9,30.16,NNW,341,26.0,33.0,39,0.00,,---,0.00,VWS V14.01,2013-04-18 21:11:00,
2013-04-18 15:21:00,27.0,4.8,30.16,NNW,340,24.0,33.0,38,0.00,,---,0.00,VWS V14.01,2013-04-18 21:21:00,
2013-04-18 15:31:00,26.6,3.3,30.16,NNW,330,23.0,35.0,36,0.00,,---,0.00,VWS V14.01,2013-04-18 21:31:00,
2013-04-18 15:41:00,27.6,5.3,30.16,NNW,342,24.0,33.0,38,0.00,,---,0.00,VWS V14.01,2013-04-18 21:41:00,
2013-04-18 15:51:00,29.0,6.0,30.15,North,360,18.0,31.0,37,0.00,,---,0.00,VWS V14.01,2013-04-18 21:51:00,
2013-04-18 16:01:00,28.5,5.6,30.15,North,349,27.0,31.0,37,0.00,,---,0.00,VWS V14.01,2013-04-18 22:01:00,
2013-04-18 16:11:00,29.4,5.8,30.14,NNW,333,17.0,32.0,36,0.00,,---,0.00,VWS V14.01,2013-04-18 22:11:00,
2013-04-18 16:21:00,29.4,5.1,30.14,NNW,333,24.0,34.0,35,0.00,,---,0.00,VWS V14.01,2013-04-18 22:21:00,
2013-04-18 16:31:00,29.8,1.4,30.14,WNW,289,9.0,33.0,29,0.00,,---,0.00,VWS V14.01,2013-04-18 22:31:00,
2013-04-18 16:41:00,29.6,2.7,30.15,WNW,303,13.0,28.0,31,0.00,,---,0.00,VWS V14.01,2013-04-18 22:41:00,
2013-04-18 16:51:00,28.8,4.0,30.15,NNW,327,40.0,40.0,34,0.00,,---,0.00,VWS V14.01,2013-04-18 22:51:00,
2013-04-18 17:01:00,28.9,-0.1,30.14,NW,319,15.0,38.0,28,0.00,,---,0.00,VWS V14.01,2013-04-18 23:01:00,
2013-04-18 17:11:00,29.2,5.6,30.12,NNW,348,23.0,27.0,36,0.00,,---,0.00,VWS V14.01,2013-04-18 23:11:00,
2013-04-18 17:21:00,29.1,5.5,30.13,NW,310,10.0,29.0,36,0.00,,---,0.00,VWS V14.01,2013-04-18 23:21:00,
2013-04-18 17:31:00,28.7,5.7,30.14,NNW,342,19.0,29.0,37,0.00,,---,0.00,VWS V14.01,2013-04-18 23:31:00,
2013-04-18 17:41:00,28.9,3.4,30.14,NNW,338,18.0,30.0,33,0.00,,---,0.00,VWS V14.01,2013-04-18 23:41:00,
2013-04-18 17:51:00,28.8,2.7,30.15,North,5,9.0,26.0,32,0.00,,---,0.00,VWS V14.01,2013-04-18 23:51:00,
2013-04-18 18:01:00,28.6,1.8,30.15,NW,311,19.0,24.0,31,0.00,,---,0.00,VWS V14.01,2013-04-19 00:01:00,
2013-04-18 18:11:00,28.1,-0.8,30.16,NW,316,12.0,28.0,28,0.00,,---,0.00,VWS V14.01,2013-04-19 00:11:00,
2013-04-18 18:21:00,27.1,5.4,30.18,North,355,23.0,24.0,39,0.00,,---,0.00,VWS V14.01,2013-04-19 00:21:00,
2013-04-18 18:31:00,26.2,5.7,30.18,North,355,25.0,30.0,41,0.00,,---,0.00,VWS V14.01,2013-04-19 00:31:00,
2013-04-18 18:41:00,25.5,6.6,30.18,NNW,338,22.0,33.0,44,0.00,,---,0.00,VWS V14.01,2013-04-19 00:41:00,
2013-04-18 18:51:00,24.9,6.1,30.22,North,351,22.0,33.0,44,0.00,,---,0.00,VWS V14.01,2013-04-19 00:51:00,
2013-04-18 19:01:00,24.4,7.1,30.23,NNW,348,15.0,27.0,47,0.00,,---,0.00,VWS V14.01,2013-04-19 01:01:00,
2013-04-18 19:11:00,23.9,6.6,30.20,North,355,13.0,24.0,47,0.00,,---,0.00,VWS V14.01,2013-04-19 01:11:00,
2013-04-18 19:21:00,23.1,7.2,30.23,North,360,21.0,21.0,50,0.00,,---,0.00,VWS V14.01,2013-04-19 01:21:00,
2013-04-18 19:31:00,22.8,6.5,30.23,NW,324,13.0,21.0,49,0.00,,---,0.00,VWS V14.01,2013-04-19 01:31:00,
2013-04-18 19:41:00,23.4,4.2,30.25,NW,306,6.0,14.0,43,0.00,,---,0.00,VWS V14.01,2013-04-19 01:41:00,
2013-04-18 19:51:00,22.2,6.8,30.25,NNW,345,11.0,18.0,51,0.00,,---,0.00,VWS V14.01,2013-04-19 01:51:00,
2013-04-18 20:01:00,21.8,7.3,30.26,NW,320,11.0,22.0,53,0.00,,---,0.00,VWS V14.01,2013-04-19 02:01:00,
2013-04-18 20:11:00,21.5,7.8,30.24,NNW,328,12.0,18.0,55,0.00,,---,0.00,VWS V14.01,2013-04-19 02:11:00,
2013-04-18 20:21:00,21.9,5.2,30.25,NNW,330,9.0,16.0,48,0.00,,---,0.00,VWS V14.01,2013-04-19 02:21:00,
2013-04-18 20:31:00,21.5,6.2,30.25,NNW,329,6.0,13.0,51,0.00,,---,0.00,VWS V14.01,2013-04-19 02:31:00,
2013-04-18 20:41:00,21.3,5.6,30.28,West,280,3.0,20.0,50,0.00,,---,0.00,VWS V14.01,2013-04-19 02:41:00,
2013-04-18 20:51:00,20.9,5.6,30.28,NNW,346,10.0,25.0,51,0.00,,---,0.00,VWS V14.01,2013-04-19 02:51:00,
2013-04-18 21:01:00,20.7,5.9,30.28,NNW,338,9.0,27.0,52,0.00,,---,0.00,VWS V14.01,2013-04-19 03:01:00,
2013-04-18 21:11:00,20.6,5.8,30.27,North,350,12.0,26.0,52,0.00,,---,0.00,VWS V14.01,2013-04-19 03:11:00,
2013-04-18 21:21:00,20.5,5.3,30.27,NW,326,18.0,25.0,51,0.00,,---,0.00,VWS V14.01,2013-04-19 03:21:00,
2013-04-18 21:31:00,20.7,4.6,30.27,NW,304,11.0,30.0,49,0.00,,---,0.00,VWS V14.01,2013-04-19 03:31:00,
2013-04-18 21:41:00,20.7,3.7,30.29,NW,304,0.0,12.0,47,0.00,,---,0.00,VWS V14.01,2013-04-19 03:41:00,
2013-04-18 21:51:00,20.2,4.6,30.31,North,360,16.0,18.0,50,0.00,,---,0.00,VWS V14.01,2013-04-19 03:51:00,
2013-04-18 22:01:00,20.2,4.1,30.31,North,9,9.0,19.0,49,0.00,,---,0.00,VWS V14.01,2013-04-19 04:01:00,
2013-04-18 22:11:00,19.7,4.5,30.29,NNW,346,9.0,12.0,51,0.00,,---,0.00,VWS V14.01,2013-04-19 04:11:00,
2013-04-18 22:21:00,19.7,4.5,30.30,NNW,345,5.0,9.0,51,0.00,,---,0.00,VWS V14.01,2013-04-19 04:21:00,
2013-04-18 22:31:00,18.7,5.2,30.30,NNW,345,5.0,7.0,55,0.00,,---,0.00,VWS V14.01,2013-04-19 04:31:00,
2013-04-18 22:41:00,19.7,4.1,30.30,NNE,15,9.0,17.0,50,0.00,,---,0.00,VWS V14.01,2013-04-19 04:41:00,
2013-04-18 22:51:00,20.4,2.9,30.29,North,9,6.0,17.0,46,0.00,,---,0.00,VWS V14.01,2013-04-19 04:51:00,
2013-04-18 23:01:00,19.9,3.4,30.30,NNW,344,13.0,24.0,48,0.00,,---,0.00,VWS V14.01,2013-04-19 05:01:00,
2013-04-18 23:11:00,20.5,3.0,30.28,NNW,341,18.0,26.0,46,0.00,,---,0.00,VWS V14.01,2013-04-19 05:11:00,
2013-04-18 23:21:00,19.8,3.7,30.28,NNW,340,12.0,22.0,49,0.00,,---,0.00,VWS V14.01,2013-04-19 05:21:00,
2013-04-18 23:31:00,19.7,3.7,30.28,NNW,346,23.0,24.0,49,0.00,,---,0.00,VWS V14.01,2013-04-19 05:31:00,
2013-04-18 23:41:00,20.0,3.5,30.28,NNW,338,20.0,26.0,48,0.00,,---,0.00,VWS V14.01,2013-04-19 05:41:00,
2013-04-18 23:51:00,20.0,3.0,30.29,NW,315,19.0,26.0,47,0.00,,---,0.00,VWS V14.01,2013-04-19 05:51:00,